Regional Weather Roundup
Issued by NWS

Home | Current Version | Previous Version | Graphics & Text | Print | Product List | Glossary On
Versions: 1 2 3 4 5 6 7 8 9 10 11 12 13 14 15 16 17 18 19 20 21 22 23 24 25 26 27 28 29 30 31 32 33 34 35 36 37 38 39 40 41 42 43 44 45 46 47 48 49 50
000
ASUS43 KBIS 310010
RWRND

NORTH DAKOTA REGIONAL WEATHER ROUNDUP
NATIONAL WEATHER SERVICE BISMARCK ND
700 PM CDT MON MAY 30 2016

NOTE: "FAIR" INDICATES FEW OR NO CLOUDS BELOW 12,000 FEET WITH NO
SIGNIFICANT WEATHER AND/OR OBSTRUCTIONS TO VISIBILITY.


NDZ001>003-009>011-017-310100-
NORTHWEST NORTH DAKOTA

CITY           SKY/WX    TMP DP  RH WIND       PRES   REMARKS
WILLISTON      CLOUDY    56  52  86 N9        29.91R
6HR MIN TEMP:  56; 6HR MAX TEMP:  60; 6HR PCP:  0.08;

MINOT          LGT RAIN  61  55  81 W6        29.85S
MINOT AFB      LGT RAIN  59  54  84 W6        29.84F
$$

NDZ018>021-031>035-040>046-310100-
SOUTHWEST NORTH DAKOTA

CITY           SKY/WX    TMP DP  RH WIND       PRES   REMARKS
BISMARCK       TSTM      61  58  90 N10G18    29.81R
6HR MIN TEMP:  62; 6HR MAX TEMP:  80; 6HR PCP:  0.01;

DICKINSON      CLOUDY    59  53  80 N6        29.87R
GARRISON         N/A     56  54  93 NE8       29.85S
6HR MIN TEMP:  56; 6HR MAX TEMP:  65; 6HR PCP:  0.40;

HETTINGER ARPT CLOUDY    64  56  75 NW18      29.89R
$$

NDZ004>008-012>016-024-026-027-054-310100-
NORTHEAST NORTH DAKOTA

CITY           SKY/WX    TMP DP  RH WIND       PRES   REMARKS
GRAND FORKS    CLOUDY    64  55  72 NE16      29.82F
GRND FRKS AFB  CLOUDY    62  56  81 NE13      29.82F
DEVILS LAKE    HVY RAIN  61  56  83 S6        29.89R
$$

NDZ022-023-025-028>030-036>039-047>053-310100-
SOUTHEAST NORTH DAKOTA

CITY           SKY/WX    TMP DP  RH WIND       PRES   REMARKS
FARGO          CLOUDY    82  48  30 SE12G22   29.76S
6HR MIN TEMP:  82; 6HR MAX TEMP:  87;

JAMESTOWN      LGT RAIN  62  57  83 NE24G30   29.77F
$$




USA.gov is the U.S. government's official web portal to all federal, state and local government web resources and services.